Regional Weather Roundup
Issued by NWS Kansas City/Pleasant Hill, MO

Home | Current Version | Previous Version | Graphics & Text | Print | Product List | Glossary Off
Versions: 1 2 3 4 5 6 7 8 9 10 11 12 13 14 15 16 17 18 19 20 21 22 23 24 25 26 27 28

000
ASUS43 KEAX 230710
RWREAX

WEATHER ROUNDUP FOR EASTERN KANSAS AND NORTHWEST MISSOURI
NATIONAL WEATHER SERVICE KANSAS CITY/PLEASANT HILL MO
200 AM CDT WED AUG 23 2017

KSZ040-057-103>105-MOZ028-029-037-043-230800-
...KANSAS CITY METROPOLITAN AREA...

CITY           SKY/WX    TMP DP  RH WIND       PRES   REMARKS
K.C. INTL      CLEAR     61  53  75 NE5       30.16S
K.C. DOWNTOWN  CLEAR     63  56  78 CALM      30.15F
LEES SUMMIT    CLEAR     61  56  83 MISG      30.16S
OLATHE - IXD   CLEAR     56  54  93 N6        30.16F
OLATHE - OJC   CLEAR     62  54  74 N3        30.16S
LAWRENCE       CLEAR     58  56  93 CALM      30.16S

$$

MOZ001>008-011>017-020>025-030>033-038>040-044>046-053-054-230800-
...NORTHERN AND CENTRAL MISSOURI...

CITY           SKY/WX    TMP DP  RH WIND       PRES   REMARKS
ST. JOSEPH     CLEAR     54  54 100 N3        30.17S
MOSBY          SUNNY     55  55 100 CALM      30.16S
WARRENSBURG    CLEAR     57  54  88 CALM      30.15S
WHITEMAN AFB   PTCLDY    58  57  99 N3        30.13S
CLINTON        CLEAR     59  57  94 CALM      30.14S
SEDALIA        CLEAR     60  58  92 N3        30.15S
WARSAW         NOT AVBL
CHILLICOTHE      N/A     56  55  97 CALM      30.16S
KIRKSVILLE     CLEAR     53  32  44 W3        30.15S

$$

MOZ041-047>049-056>058-063>065-088>090-097-230800-
...EASTERN AND SOUTHERN MISSOURI...

CITY           SKY/WX    TMP DP  RH WIND       PRES   REMARKS
ST. LOUIS INTL CLEAR     65  57  75 N7        30.09S
SPIRIT OF STL  CLEAR     61  59  93 SW3       30.08F
COLUMBIA       CLEAR     61  54  77 NE6       30.12F
JEFFERSON CITY CLEAR     64  56  75 NW3       30.11S
ROLLA          CLEAR     61  57  87 N7        30.12F
OSAGE BEACH    PTCLDY    63  58  83 N5        30.13S
SPRINGFIELD    PTCLDY    66  63  90 NE6       30.11F
BRANSON        CLOUDY    72  66  83 N7        30.11S
JOPLIN         PTCLDY    68  66  93 N6        30.12S
WEST PLAINS    CLOUDY    69  63  81 N3        30.10F

$$

IAZ060-094-KSZ022-034>040-054-083-096-NEZ052-066-093-230800-
...KANSAS...SOUTHEAST NEBRASKA AND IOWA...

CITY           SKY/WX    TMP DP  RH WIND       PRES   REMARKS
TOPEKA         CLEAR     58  57  97 CALM      30.16F
MANHATTAN      CLEAR     55  54  96 CALM      30.17F
EMPORIA        CLEAR     59  54  83 CALM      30.17R
CHANUTE        CLEAR     64  57  78 N7        30.15S
WICHITA        PTCLDY    66  58  75 NE9       30.16S
OMAHA          CLEAR     60  54  80 CALM      30.17F
LINCOLN        CLEAR     56  53  90 CALM      30.19S
FALLS CITY     CLEAR     56  54  93 CALM      30.17S
LAMONI         CLEAR     55  52  89 W6        30.15S
DES MOINES     CLEAR     58  54  86 W3        30.13F

$$





USA.gov is the U.S. government's official web portal to all federal, state and local government web resources and services.